Hourly Data Report for October 02, 2013

All times are specified in Local Standard Time (LST). Add 1 hour to adjust for Daylight Saving Time where and when it is observed.

ST LEONARD CS
NEW BRUNSWICK

47°09'28.050" N
67°49'55.014" W
245.00 m
810I001
71019
WIY

Download Data

Hourly Data (October 2013)
Hourly Data Report for October 2, 2013
Temp Definition
°C
Dew Point Temp Definition
°C
Rel Hum Definition
%
Wind Dir Definition
10's deg

Wind Spd Definition
km/h
Visibility Definition
km
Stn Press Definition
kPa
Hmdx Definition


Wind Chill Definition


Weather Definition


TIME
00:00 11.1 7.8 80   0   97.91     LegendNANA
01:00 8.8 6.8 87 23 2   97.88     LegendNANA
02:00 7.5 5.9 90   0   97.85     LegendNANA
03:00 6.6 5.5 93   0   97.82     LegendNANA
04:00 6.8 5.4 91 14 6   97.80     LegendNANA
05:00 6.7 5.8 94 13 6   97.78     LegendNANA
06:00 6.4 5.6 95 12 2   97.76     LegendNANA
07:00 8.4 7.8 96 15 6   97.74     LegendNANA
08:00 11.0 9.5 90 16 6   97.69     LegendNANA
09:00 14.1 11.7 85 21 13   97.67     LegendNANA
10:00 17.0 12.6 75 22 9   97.62     LegendNANA
11:00 18.6 12.7 69 24 19   97.54     LegendNANA
12:00 19.5 13.2 67 26 24   97.49     LegendNANA
13:00 20.2 12.8 62 25 26   97.44     LegendNANA
14:00 21.6 11.5 53 27 19   97.38     LegendNANA
15:00 22.0 8.0 41 26 22   97.36     LegendNANA
16:00 21.4 7.2 40 28 22   97.40     LegendNANA
17:00 21.2 6.2 38 29 19   97.45     LegendNANA
18:00 19.0 6.1 43 28 13   97.50     LegendNANA
19:00 17.1 6.7 50 27 11   97.58     LegendNANA
20:00 14.4 6.9 61   0   97.63     LegendNANA
21:00 15.7 6.0 52 31 19   97.70     LegendNANA
22:00 15.4 5.6 52 31 19   97.80     LegendNANA
23:00 14.9 5.5 53 30 22   97.87     LegendNANA

Notes on Data Quality.

Legend

  • E = Estimated
  • M = Missing
  • NA = Not Available
  • ‡ = Partner data that is not subject to review by the National Climate Archives
Date modified: